Time,TemperatureF,DewpointF,PressureIn,WindDirection,WindDirectionDegrees,WindSpeedMPH,WindSpeedGustMPH,Humidity,HourlyPrecipIn,Conditions,Clouds,dailyrainin,SoftwareType,DateUTC
2013-11-01 00:24:00,63.0,59.0,29.80,SW,223,2.0,9.0,87,0.01,,,0.02,,2013-11-01 04:24:00,
2013-11-01 00:54:00,63.0,60.0,29.78,SW,223,1.0,7.0,89,0.00,,,0.02,,2013-11-01 04:54:00,
2013-11-01 01:23:00,64.0,61.0,29.77,SSW,192,2.0,7.0,91,0.00,,,0.02,,2013-11-01 05:23:00,
2013-11-01 01:42:00,64.0,62.0,29.76,SSE,165,2.0,7.0,92,0.00,,,0.02,,2013-11-01 05:42:00,
2013-11-01 01:53:00,64.0,62.0,29.76,SSE,165,2.0,7.0,92,0.00,,,0.02,,2013-11-01 05:53:00,
2013-11-01 02:22:00,65.0,63.0,29.74,South,182,3.0,8.0,92,0.00,,,0.02,,2013-11-01 06:22:00,
2013-11-01 02:52:00,65.0,62.0,29.72,South,190,2.0,7.0,91,0.00,,,0.02,,2013-11-01 06:52:00,
2013-11-01 03:02:00,65.0,62.0,29.72,South,190,2.0,7.0,91,0.00,,,0.02,,2013-11-01 07:02:00,
2013-11-01 03:22:00,66.0,63.0,29.71,SSE,166,3.0,6.0,90,0.00,,,0.02,,2013-11-01 07:22:00,
2013-11-01 03:32:00,66.0,63.0,29.71,SSE,166,3.0,6.0,90,0.00,,,0.02,,2013-11-01 07:32:00,
2013-11-01 03:52:00,66.0,63.0,29.69,SSW,195,2.0,11.0,89,0.00,,,0.02,,2013-11-01 07:52:00,
2013-11-01 04:00:00,66.0,63.0,29.67,South,183,2.0,10.0,89,0.00,,,0.02,,2013-11-01 08:00:00,
2013-11-01 04:21:00,66.0,63.0,29.67,South,183,2.0,10.0,89,0.00,,,0.02,,2013-11-01 08:21:00,
2013-11-01 04:32:00,66.0,63.0,29.67,South,183,2.0,10.0,89,0.00,,,0.02,,2013-11-01 08:32:00,
2013-11-01 04:42:00,66.0,63.0,29.67,South,183,2.0,10.0,89,0.00,,,0.02,,2013-11-01 08:42:00,
2013-11-01 04:52:00,66.0,63.0,29.67,South,183,2.0,10.0,89,0.00,,,0.02,,2013-11-01 08:52:00,
2013-11-01 05:22:00,67.0,63.0,29.63,South,186,2.0,7.0,87,0.00,,,0.02,,2013-11-01 09:22:00,
2013-11-01 05:33:00,67.0,63.0,29.63,South,186,2.0,7.0,87,0.00,,,0.02,,2013-11-01 09:33:00,
2013-11-01 05:53:00,68.0,63.0,29.62,SSW,203,3.0,11.0,85,0.00,,,0.02,,2013-11-01 09:53:00,
2013-11-01 06:23:00,68.0,63.0,29.60,SSW,212,3.0,11.0,85,0.00,,,0.02,,2013-11-01 10:23:00,
2013-11-01 06:33:00,68.0,63.0,29.60,SSW,212,3.0,11.0,85,0.00,,,0.02,,2013-11-01 10:33:00,
2013-11-01 06:52:00,69.0,64.0,29.59,SSW,204,3.0,11.0,83,0.00,,,0.02,,2013-11-01 10:52:00,
2013-11-01 07:12:00,69.0,64.0,29.59,SSW,193,3.0,12.0,83,0.00,,,0.02,,2013-11-01 11:12:00,
2013-11-01 07:22:00,69.0,64.0,29.59,SSW,193,3.0,12.0,83,0.00,,,0.02,,2013-11-01 11:22:00,
2013-11-01 07:52:00,68.0,65.0,29.57,South,191,3.0,9.0,89,0.02,,,0.04,,2013-11-01 11:52:00,
2013-11-01 08:10:00,68.0,65.0,29.57,South,181,3.0,11.0,89,0.03,,,0.06,,2013-11-01 12:10:00,
2013-11-01 08:12:00,68.0,65.0,29.57,South,176,3.0,11.0,89,0.02,,,0.05,,2013-11-01 12:12:00,
2013-11-01 08:22:00,68.0,65.0,29.57,South,176,3.0,11.0,89,0.02,,,0.05,,2013-11-01 12:22:00,
2013-11-01 08:42:00,68.0,65.0,29.57,South,181,3.0,11.0,89,0.03,,,0.06,,2013-11-01 12:42:00,
2013-11-01 08:52:00,68.0,65.0,29.57,South,181,3.0,11.0,89,0.03,,,0.06,,2013-11-01 12:52:00,
2013-11-01 09:52:00,69.0,64.0,29.56,SSW,196,4.0,14.0,85,0.01,,,0.07,,2013-11-01 13:52:00,
2013-11-01 10:22:00,65.0,61.0,29.62,WNW,289,4.0,17.0,86,0.19,,,0.26,,2013-11-01 14:22:00,
2013-11-01 10:52:00,62.0,60.0,29.61,SW,222,1.0,8.0,92,0.21,,,0.28,,2013-11-01 14:52:00,
2013-11-01 11:11:00,62.0,60.0,29.59,SSW,201,1.0,4.0,94,0.21,,,0.28,,2013-11-01 15:11:00,
2013-11-01 11:22:00,62.0,60.0,29.59,SSW,201,1.0,4.0,94,0.21,,,0.28,,2013-11-01 15:22:00,
2013-11-01 11:44:00,62.0,60.0,29.59,NW,326,1.0,4.0,93,0.00,,,0.28,,2013-11-01 15:44:00,
2013-11-01 11:54:00,62.0,60.0,29.59,NW,326,1.0,4.0,93,0.00,,,0.28,,2013-11-01 15:54:00,
2013-11-01 12:04:00,62.0,60.0,29.59,NW,326,1.0,4.0,93,0.00,,,0.28,,2013-11-01 16:04:00,
2013-11-01 12:23:00,64.0,60.0,29.58,WSW,253,1.0,4.0,86,0.00,,,0.28,,2013-11-01 16:23:00,
2013-11-01 12:32:00,64.0,60.0,29.58,WSW,253,1.0,4.0,86,0.00,,,0.28,,2013-11-01 16:32:00,
2013-11-01 12:53:00,65.0,59.0,29.59,SW,222,2.0,7.0,81,0.00,,,0.28,,2013-11-01 16:53:00,
2013-11-01 13:22:00,66.0,59.0,29.56,SW,217,3.0,12.0,78,0.00,,,0.28,,2013-11-01 17:22:00,
2013-11-01 13:52:00,68.0,59.0,29.57,SW,219,3.0,9.0,73,0.00,,,0.28,,2013-11-01 17:52:00,
2013-11-01 14:12:00,68.0,59.0,29.56,West,274,3.0,10.0,72,0.00,,,0.28,,2013-11-01 18:12:00,
2013-11-01 14:22:00,68.0,59.0,29.56,West,274,3.0,10.0,72,0.00,,,0.28,,2013-11-01 18:22:00,
2013-11-01 14:52:00,70.0,58.0,29.56,SSW,192,3.0,8.0,65,0.00,,,0.28,,2013-11-01 18:52:00,
2013-11-01 15:21:00,71.0,55.0,29.55,WNW,296,3.0,10.0,58,0.00,,,0.28,,2013-11-01 19:21:00,
2013-11-01 15:42:00,71.0,54.0,29.56,WNW,295,3.0,9.0,56,0.00,,,0.28,,2013-11-01 19:42:00,
2013-11-01 15:50:00,70.0,53.0,29.56,WNW,282,3.0,12.0,54,0.00,,,0.28,,2013-11-01 19:50:00,
2013-11-01 15:52:00,71.0,54.0,29.56,WNW,295,3.0,9.0,56,0.00,,,0.28,,2013-11-01 19:52:00,
2013-11-01 16:12:00,70.0,53.0,29.56,WNW,282,3.0,12.0,54,0.00,,,0.28,,2013-11-01 20:12:00,
2013-11-01 16:22:00,70.0,53.0,29.56,WNW,282,3.0,12.0,54,0.00,,,0.28,,2013-11-01 20:22:00,
2013-11-01 16:32:00,70.0,53.0,29.56,WNW,282,3.0,12.0,54,0.00,,,0.28,,2013-11-01 20:32:00,
2013-11-01 16:42:00,70.0,53.0,29.56,WNW,282,3.0,12.0,54,0.00,,,0.28,,2013-11-01 20:42:00,
2013-11-01 17:22:00,69.0,55.0,29.55,WNW,289,1.0,6.0,60,0.00,,,0.28,,2013-11-01 21:22:00,
2013-11-01 17:43:00,69.0,55.0,29.56,East,99,1.0,3.0,60,0.00,,,0.28,,2013-11-01 21:43:00,
2013-11-01 17:55:00,68.0,54.0,29.58,West,260,1.0,4.0,62,0.00,,,0.28,,2013-11-01 21:55:00,
2013-11-01 18:24:00,66.0,54.0,29.59,West,271,0.0,1.0,66,0.00,,,0.28,,2013-11-01 22:24:00,
2013-11-01 18:42:00,65.0,54.0,29.59,SW,215,0.0,5.0,67,0.00,,,0.28,,2013-11-01 22:42:00,
2013-11-01 18:53:00,65.0,54.0,29.59,SW,215,0.0,5.0,67,0.00,,,0.28,,2013-11-01 22:53:00,
2013-11-01 19:03:00,65.0,54.0,29.59,SW,215,0.0,5.0,67,0.00,,,0.28,,2013-11-01 23:03:00,
2013-11-01 19:22:00,64.0,55.0,29.61,WSW,254,0.0,1.0,72,0.00,,,0.28,,2013-11-01 23:22:00,
2013-11-01 19:34:00,64.0,55.0,29.61,WSW,254,0.0,1.0,72,0.00,,,0.28,,2013-11-01 23:34:00,
2013-11-01 19:42:00,64.0,55.0,29.61,WSW,254,0.0,1.0,72,0.00,,,0.28,,2013-11-01 23:42:00,
2013-11-01 19:53:00,64.0,55.0,29.61,WSW,254,0.0,1.0,72,0.00,,,0.28,,2013-11-01 23:53:00,
2013-11-01 20:11:00,61.0,55.0,29.64,North,0,0.0,0.0,80,0.00,,,0.28,,2013-11-02 00:11:00,
2013-11-01 20:22:00,61.0,55.0,29.64,North,0,0.0,0.0,80,0.00,,,0.28,,2013-11-02 00:22:00,
2013-11-01 20:42:00,58.0,54.0,29.65,SW,229,0.0,1.0,86,0.00,,,0.28,,2013-11-02 00:42:00,
2013-11-01 20:52:00,58.0,54.0,29.65,North,0,0.0,0.0,86,0.00,,,0.28,,2013-11-02 00:52:00,
2013-11-01 21:22:00,57.0,54.0,29.65,WSW,251,0.0,1.0,89,0.00,,,0.27,,2013-11-02 01:22:00,
2013-11-01 21:52:00,56.0,54.0,29.66,North,0,0.0,0.0,92,0.00,,,0.27,,2013-11-02 01:52:00,
2013-11-01 22:11:00,56.0,54.0,29.67,North,0,0.0,0.0,92,0.00,,,0.27,,2013-11-02 02:11:00,
2013-11-01 22:22:00,56.0,54.0,29.67,North,0,0.0,0.0,92,0.00,,,0.27,,2013-11-02 02:22:00,
2013-11-01 22:53:00,53.0,51.0,29.70,North,0,0.0,0.0,94,0.00,,,0.27,,2013-11-02 02:53:00,
2013-11-01 23:22:00,52.0,51.0,29.70,North,0,0.0,0.0,96,0.00,,,0.27,,2013-11-02 03:22:00,
2013-11-01 23:54:00,52.0,51.0,29.70,West,278,0.0,1.0,96,0.00,,,0.26,,2013-11-02 03:54:00,